Lexington Weather

Lexington, Massachusetts, USA

69°F
6/18/2024 1:14am 
  • Lexington Conditions: Clear
  • Temperature: 69.3°F / 20.7°CColder 0.9°F than last hour.
  • Dew Point: 62.4°FIncreased 0.2°Fsince last hour.
  • Relative Humidity: 79%Increased 3.0% since last hour.
  • Wind: Calm, 10-min avg: Calm, gust: 4 mph
  • Barometer: 30.09 in Steady
  • Visibility: 10 miles
  • Rain Today: 0.00 in
  •   
Southeast Middlesex County, MA - Heat Advisory - Excessive Heat Watch
 - SEE ALL NEARBY ALERTS -

Regional Weather Roundup
for Boston, MA

        
000
ASUS41 KBOX 140410
RWRBOX

REGIONAL WEATHER ROUNDUP
NATIONAL WEATHER SERVICE BOSTON/NORTON MA
1200 AM EDT FRI JUN 14 2024

NOTE:  "FAIR" INDICATES FEW OR NO CLOUDS BELOW 12,000 FEET WITH NO 
SIGNIFICANT WEATHER AND/OR OBSTRUCTIONS TO VISIBILITY.

MAZALL-140500-
EASTERN MASSACHUSETTS
  
CITY           SKY/WX    TMP DP  RH WIND       PRES   REMARKS
BOSTON         PTCLDY    71  57  61 SW13      29.92S                  
BEVERLY        CLEAR     70  57  63 SW8       29.91S                  
LAWRENCE       CLEAR     71  56  58 SW8       29.93S                  
BEDFORD        CLEAR     69  55  60 SW6       29.91S                  
NORWOOD        CLEAR     68  59  73 S5        29.94S                  
MARSHFIELD     PTCLDY    68  59  73 SW9G16    29.93S                  
PLYMOUTH       CLEAR     66  59  78 SW9       29.95F                  
TAUNTON        CLEAR     69  59  70 SW7       29.95F                  
NEW BEDFORD    CLEAR     66  61  84 SW8       29.96F                  
$$

MAZALL-140500-
CAPE COD AND THE ISLANDS
  
CITY           SKY/WX    TMP DP  RH WIND       PRES   REMARKS
FALMOUTH       CLEAR     64  61  88 S9        29.99S                  
HYANNIS        CLEAR     65  60  84 SW8       29.96F                  
CHATHAM        CLEAR     66  61  84 SW10      29.98F                  
PROVINCETOWN   CLEAR     64  62  93 SW15      29.95F                  
NANTUCKET      CLEAR     61  60  97 S12         N/A                   
MARTHAS VNYRD  CLEAR     62  61  96 SW7       29.98F                  
$$
 
MAZALL-140500-
CENTRAL AND WESTERN MASSACHUSETTS
  
CITY           SKY/WX    TMP DP  RH WIND       PRES   REMARKS
WORCESTER      CLEAR     68  54  60 SW10      29.96S                  
FITCHBURG      CLEAR     73  53  49 VRB7      29.93S                  
ORANGE         CLEAR     70  56  61 S10       29.94S                  
SPRINGFIELD    CLEAR     69  57  67 S6        29.91S                  
WESTFIELD      CLEAR     68  57  68 S8        29.93S                  
NORTH ADAMS    CLEAR     72  58  61 VRB3      29.91F                  
PITTSFIELD     CLEAR     69  55  60 SW5       29.93F                  
$$
 
RIZALL-140500-
RHODE ISLAND
  
CITY           SKY/WX    TMP DP  RH WIND       PRES   REMARKS
PROVIDENCE     CLEAR     67  59  75 SW8       29.96F                  
NEWPORT        CLEAR     63  60  90 VRB6      29.97F                  
BLOCK ISLAND   CLEAR     63  60  90 SW13      29.99F                  
SMITHFIELD     CLEAR     65  60  84 VRB6      29.97S                  
WESTERLY       CLEAR     64  59  83 S6        29.98S                  
$$
 
CTZALL-140500-
CONNECTICUT
  
CITY           SKY/WX    TMP DP  RH WIND       PRES   REMARKS
BRADLEY INTL   CLEAR     72  58  61 S9        29.94S                  
HARTFORD       CLEAR     70  59  68 S7        29.94S                  
PLAINVILLE     CLEAR     69  61  76 S6        29.94S                  
BRIDGEPORT     CLEAR     69  61  75 SW6       29.96S                  
DANBURY        CLEAR     71  59  65 SW3       29.97R                  
GROTON         CLEAR     64  62  93 S5        29.97S                  
NEW HAVEN      CLEAR     70  62  76 S3        29.96F                  
CHESTER        CLEAR     66  63  88 S8        29.98S                  
MERIDEN        CLEAR     68  58  70 S5        29.96R                  
WILLIMANTIC    CLEAR     68  58  70 S7        29.96F                  
OXFORD         CLEAR     66  60  81 CALM      29.98S                  
$$

MEZ002-015-021-024-NHZ003-005-008-011-012-014-VTZ005-008-140500-
NORTHERN NEW ENGLAND
  
CITY           SKY/WX    TMP DP  RH WIND       PRES   REMARKS
PORTLAND ME    MOCLDY    73  60  63 SW10G24   29.87F                  
BANGOR ME      CLOUDY    63  56  78 S8        29.85F                  
CONCORD NH     CLEAR     66  59  78 SE5       29.90S                  
MANCHESTER NH  CLEAR     73  57  57 S7        29.89F                  
NASHUA NH      CLEAR     71  58  63 CALM      29.92S                  
PORTSMOUTH NH  PTCLDY    73  58  59 SW7       29.88S                  
JAFFREY NH     CLEAR     71  54  54 S8G21     29.95S                  
KEENE NH       CLEAR     70  57  63 S10       29.91F                  
BURLINGTON VT  PTCLDY    78  56  46 S17G28    29.74F                  
MT. WASHINGTON PTCLDY    50  46  87 W54G63      N/A                   
$$

NYZ052-076-140500-
EASTERN NEW YORK
  
CITY           SKY/WX    TMP DP  RH WIND       PRES   REMARKS
ALBANY         PTCLDY    74  57  55 S9        29.87F                  
NEW YORK CITY  PTCLDY    74  58  57 S13       29.95S                  
$$
 
ANZALL-140500-
MARINE OBSERVATIONS
  
STATION/POSITION TIME  TEMP    WIND        PRES    VSBY  WAVE
                       AIR SEA DIR/SP/G                  HT/PER
                 (UTC) (F)     (DEG/KT/KT) (MB)    (MI)  (FT/S)
BOSTON BUOY      0350   66 64  190/  8/ 10 1013.8R         1/ 8
BUZZARDS BAY     0300   64     220/ 11/ 11 1015.8F
NANTUCKET SOUND  0350   66 67  210/ 14/ 17 1014.6F         1/ 3
MASS BAY-STELLWA 0204   69 64  210/ 14/ 16 1013.5F  1 7/8  2/ 8
ISLE OF SHOALS   0300   73     210/ 21/ 21 1011.4F
S OF BLOCK IS    0356      63                N/A           3/ 8
$$

......................KEY.........................
  SKY/WX - SKY CONDITION/PRESENT WEATHER
  TMP    - TEMPERATURE IN FAHRENHEIT
  DWPT   - DEWPOINT IN FAHRENHEIT
  RH     - RELATIVE HUMIDITY IN PERCENT
  WIND   - DIRECTION AND SPEED IN MPH
  PRES   - MEAN SEA LEVEL PRESSURE IN INCHES OF HG
  WCI    - WIND CHILL INDEX
  VSB    - VISIBILITY IN MILES
  HX     - HEAT INDEX
  TC     - TEMPERATURE IN CELSIUS
  VRB    - VARIABLE WIND DIRECTION
  N/A    - NOT AVAILABLE
  
      

Other recent Regional Weather Roundups

Tue Jun 18, 12:10am EDT

Mon Jun 17, 11:10pm EDT

Mon Jun 17, 10:10pm EDT

Mon Jun 17, 9:10pm EDT

Mon Jun 17, 8:10pm EDT

Mon Jun 17, 7:10pm EDT

Mon Jun 17, 6:10pm EDT

Mon Jun 17, 5:10pm EDT

Mon Jun 17, 4:10pm EDT

Mon Jun 17, 3:10pm EDT

Mon Jun 17, 2:10pm EDT

Mon Jun 17, 1:10pm EDT

Mon Jun 17, 12:10pm EDT

Mon Jun 17, 11:10am EDT

Mon Jun 17, 10:10am EDT

Mon Jun 17, 9:10am EDT

Mon Jun 17, 8:10am EDT

Mon Jun 17, 7:10am EDT

Mon Jun 17, 6:10am EDT

Mon Jun 17, 5:10am EDT

Mon Jun 17, 4:10am EDT

Mon Jun 17, 3:10am EDT

Mon Jun 17, 2:10am EDT

Mon Jun 17, 1:10am EDT

Mon Jun 17, 12:10am EDT

Sun Jun 16, 11:10pm EDT

Sun Jun 16, 10:10pm EDT

Sun Jun 16, 9:10pm EDT

Sun Jun 16, 8:10pm EDT

Sun Jun 16, 7:10pm EDT

Sun Jun 16, 6:10pm EDT

Sun Jun 16, 5:10pm EDT

Sun Jun 16, 4:10pm EDT

Sun Jun 16, 3:10pm EDT

Sun Jun 16, 2:10pm EDT

Sun Jun 16, 1:10pm EDT

Sun Jun 16, 12:10pm EDT

Sun Jun 16, 11:10am EDT

Sun Jun 16, 10:10am EDT

Sun Jun 16, 9:10am EDT

Sun Jun 16, 8:10am EDT

Sun Jun 16, 7:10am EDT

Sun Jun 16, 6:10am EDT

Sun Jun 16, 5:10am EDT

Sun Jun 16, 4:10am EDT

Sun Jun 16, 3:10am EDT

Sun Jun 16, 2:10am EDT

Sun Jun 16, 1:10am EDT

Sun Jun 16, 12:10am EDT

Sat Jun 15, 11:10pm EDT

Sat Jun 15, 10:10pm EDT

Sat Jun 15, 9:10pm EDT

Sat Jun 15, 8:10pm EDT

Sat Jun 15, 7:10pm EDT

Sat Jun 15, 6:10pm EDT

Sat Jun 15, 5:10pm EDT

Sat Jun 15, 4:10pm EDT

Sat Jun 15, 3:10pm EDT

Sat Jun 15, 2:10pm EDT

Sat Jun 15, 1:10pm EDT

Sat Jun 15, 12:10pm EDT

Sat Jun 15, 11:10am EDT

Sat Jun 15, 10:10am EDT

Sat Jun 15, 9:10am EDT

Sat Jun 15, 8:10am EDT

Sat Jun 15, 7:10am EDT

Sat Jun 15, 6:10am EDT

Sat Jun 15, 5:10am EDT

Sat Jun 15, 4:10am EDT

Sat Jun 15, 3:10am EDT

Sat Jun 15, 2:10am EDT

Sat Jun 15, 1:10am EDT

Sat Jun 15, 12:10am EDT

Fri Jun 14, 11:10pm EDT

Fri Jun 14, 10:10pm EDT

Fri Jun 14, 9:10pm EDT

Fri Jun 14, 8:10pm EDT

Fri Jun 14, 7:10pm EDT

Fri Jun 14, 6:10pm EDT

Fri Jun 14, 5:10pm EDT

Fri Jun 14, 4:10pm EDT

Fri Jun 14, 3:10pm EDT

Fri Jun 14, 2:10pm EDT

Fri Jun 14, 1:10pm EDT

Fri Jun 14, 12:10pm EDT

Fri Jun 14, 11:10am EDT

Fri Jun 14, 10:10am EDT

Fri Jun 14, 9:10am EDT

Fri Jun 14, 8:10am EDT

Fri Jun 14, 7:10am EDT

Fri Jun 14, 6:10am EDT

Fri Jun 14, 5:10am EDT

Fri Jun 14, 4:10am EDT

Fri Jun 14, 3:10am EDT

Fri Jun 14, 2:10am EDT

Fri Jun 14, 1:10am EDT

Thu Jun 13, 11:10pm EDT

Thu Jun 13, 10:10pm EDT

Thu Jun 13, 9:10pm EDT

Thu Jun 13, 8:10pm EDT

Thu Jun 13, 7:10pm EDT

Thu Jun 13, 6:10pm EDT

Thu Jun 13, 5:10pm EDT

Thu Jun 13, 4:10pm EDT

Thu Jun 13, 3:10pm EDT

Thu Jun 13, 2:10pm EDT

Thu Jun 13, 1:10pm EDT

Thu Jun 13, 12:10pm EDT

Thu Jun 13, 11:10am EDT

Thu Jun 13, 10:10am EDT

Thu Jun 13, 9:10am EDT

Thu Jun 13, 8:10am EDT

Thu Jun 13, 7:10am EDT

Thu Jun 13, 6:10am EDT

Thu Jun 13, 5:10am EDT

Thu Jun 13, 4:10am EDT

Thu Jun 13, 3:10am EDT

Thu Jun 13, 2:10am EDT

Thu Jun 13, 1:10am EDT

Thu Jun 13, 12:10am EDT

Wed Jun 12, 11:10pm EDT

Wed Jun 12, 10:10pm EDT

Wed Jun 12, 9:10pm EDT

Wed Jun 12, 8:10pm EDT

Wed Jun 12, 7:10pm EDT

Wed Jun 12, 6:10pm EDT

Wed Jun 12, 5:10pm EDT

Wed Jun 12, 4:10pm EDT

Wed Jun 12, 3:10pm EDT

Wed Jun 12, 2:10pm EDT

Wed Jun 12, 1:10pm EDT

Wed Jun 12, 12:10pm EDT

Wed Jun 12, 11:10am EDT

Wed Jun 12, 10:10am EDT

Wed Jun 12, 9:10am EDT

Wed Jun 12, 8:10am EDT

Wed Jun 12, 7:10am EDT

Wed Jun 12, 6:10am EDT

Wed Jun 12, 5:10am EDT

Wed Jun 12, 4:10am EDT

Wed Jun 12, 3:10am EDT

Wed Jun 12, 2:10am EDT

Wed Jun 12, 1:10am EDT

Wed Jun 12, 12:10am EDT

Tue Jun 11, 11:10pm EDT

Tue Jun 11, 10:10pm EDT

Tue Jun 11, 9:10pm EDT

Tue Jun 11, 8:10pm EDT

Tue Jun 11, 7:10pm EDT

Tue Jun 11, 6:10pm EDT

Tue Jun 11, 5:10pm EDT

Tue Jun 11, 4:10pm EDT

Tue Jun 11, 3:10pm EDT

Tue Jun 11, 2:10pm EDT

Tue Jun 11, 1:10pm EDT

Tue Jun 11, 12:10pm EDT

Tue Jun 11, 11:10am EDT

Tue Jun 11, 10:10am EDT

Tue Jun 11, 9:10am EDT

Tue Jun 11, 8:10am EDT

Tue Jun 11, 7:10am EDT

Tue Jun 11, 6:10am EDT

Tue Jun 11, 5:10am EDT

Tue Jun 11, 4:10am EDT

Tue Jun 11, 3:10am EDT

Tue Jun 11, 2:10am EDT

Tue Jun 11, 1:10am EDT